DW6120 Weather Reports


Display with metric or nautical units.
time (UTC)temp
F
wind
direction
speed
MPH
gust
MPH
rain 1hr
in
rain 24hr
in
rain mn
in
humidity
%
barometer
mb
20260507163053 57 272 3.0 5.0 0.00 0.00 0.00 46 1016.1
20260507161550 57 285 0.0 3.0 0.00 0.00 0.00 46 1016.0
20260507160051 57 285 2.0 4.0 0.00 0.00 0.00 46 1015.9
20260507154548 56 310 0.0 3.0 0.00 0.00 0.00 49 1016.1
20260507153046 56 299 4.0 9.0 0.00 0.00 0.00 52 1016.1
20260507151544 55 290 0.0 2.0 0.00 0.00 0.00 54 1016.2
20260507150040 53 290 0.0 4.0 0.00 0.00 0.00 53 1016.2
20260507144539 53 158 1.0 5.0 0.00 0.00 0.00 55 1016.2
20260507143037 52 242 0.0 2.0 0.00 0.00 0.00 55 1016.4
20260507141534 51 242 0.0 3.0 0.00 0.00 0.00 61 1016.2
20260507140032 50 242 0.0 3.0 0.00 0.00 0.00 58 1016.3
20260507134531 50 117 0.0 5.0 0.00 0.00 0.00 57 1016.3
20260507133033 49 148 1.0 3.0 0.00 0.00 0.00 53 1016.4
20260507131528 49 148 2.0 4.0 0.00 0.00 0.00 54 1016.4
20260507130037 49 78 1.0 3.0 0.00 0.00 0.00 54 1016.6
20260507124529 48 78 1.0 5.0 0.00 0.00 0.00 52 1016.7
20260507123026 48 72 2.0 5.0 0.00 0.00 0.00 54 1016.5
20260507121525 48 117 3.0 7.0 0.00 0.00 0.00 53 1016.3
20260507120024 48 119 4.0 8.0 0.00 0.00 0.00 53 1016.6
20260507114523 48 103 3.0 6.0 0.00 0.00 0.00 54 1016.9
20260507113023 48 94 0.0 5.0 0.00 0.00 0.00 53 1017.1
20260507111527 49 91 4.0 8.0 0.00 0.00 0.00 51 1016.7
20260507110024 50 109 4.0 5.0 0.00 0.00 0.00 50 1016.7
20260507104522 49 98 4.0 7.0 0.00 0.00 0.00 51 1016.9
20260507103028 49 68 4.0 7.0 0.00 0.00 0.00 51 1017.1
20260507101517 49 84 4.0 6.0 0.00 0.00 0.00 50 1017.2
20260507100019 49 94 6.0 8.0 0.00 0.00 0.00 49 1017.6
20260507094514 49 128 3.0 7.0 0.00 0.03 0.00 48 1017.8
20260507093012 49 110 5.0 9.0 0.00 0.03 0.00 48 1017.8
20260507091510 48 102 4.0 8.0 0.00 0.03 0.00 49 1018.0
20260507090009 48 65 4.0 7.0 0.00 0.03 0.00 50 1018.1
20260507084507 48 84 3.0 8.0 0.00 0.08 0.00 48 1018.2
20260507083007 48 87 4.0 7.0 0.00 0.08 0.00 49 1018.4
20260507081505 48 83 5.0 8.0 0.00 0.08 0.00 48 1018.5
20260507080005 48 98 5.0 8.0 0.00 0.08 0.00 48 1018.6
20260507074504 49 94 4.0 8.0 0.00 0.08 0.00 46 1018.6
20260507073002 49 96 5.0 8.0 0.00 0.08 0.00 46 1018.9
20260507071511 48 86 5.0 8.0 0.00 0.08 0.00 46 1019.0
20260507070009 49 115 3.0 9.0 0.00 0.08 0.00 45 1019.0
20260507064501 49 81 4.0 8.0 0.00 0.08 0.00 46 1019.0
20260507063103 49 95 5.0 8.0 0.00 0.08 0.00 46 1019.0
20260507060057 48 90 6.0 9.0 0.00 0.08 0.00 46 1019.0
20260507054553 48 74 2.0 7.0 0.00 0.08 0.08 45 1018.9
20260507053120 48 88 5.0 8.0 0.00 0.08 0.08 45 1019.1
20260507050052 48 81 3.0 7.0 0.00 0.08 0.08 46 1019.3
20260507044556 48 71 4.0 8.0 0.00 0.08 0.08 45 1019.4
20260507043053 47 84 4.0 8.0 0.00 0.08 0.08 46 1019.2
20260507040051 48 107 3.0 7.0 0.00 0.08 0.08 45 1019.2
20260507034550 48 82 3.0 6.0 0.00 0.08 0.08 46 1019.3
20260507033052 48 95 2.0 5.0 0.00 0.08 0.08 45 1019.1
20260507030049 49 100 4.0 6.0 0.00 0.08 0.08 43 1018.5
20260507024559 50 88 3.0 7.0 0.00 0.08 0.08 45 1018.7
20260507023048 53 95 3.0 6.0 0.00 0.08 0.08 41 1018.6
20260507020049 57 342 1.0 5.0 0.00 0.08 0.08 32 1018.5
20260507014559 58 335 1.0 3.0 0.00 0.08 0.08 31 1018.7
20260507013050 58 71 1.0 5.0 0.00 0.08 0.08 31 1018.8
20260507010101 58 284 3.0 8.0 0.00 0.08 0.08 31 1018.8
20260507004556 57 321 4.0 9.0 0.00 0.08 0.08 32 1018.8
20260507003049 57 18 3.0 8.0 0.00 0.08 0.08 31 1018.9
20260507000046 57 338 4.0 9.0 0.00 0.08 0.08 32 1018.8
20260506234545 57 334 6.0 11.0 0.00 0.08 0.08 32 1018.7
20260506233045 57 241 1.0 9.0 0.00 0.08 0.08 33 1018.7
20260506230042 57 20 3.0 13.0 0.00 0.08 0.08 35 1018.8
20260506224542 56 331 4.0 12.0 0.00 0.08 0.08 33 1018.8
20260506223040 56 15 4.0 14.0 0.00 0.08 0.08 33 1018.8
20260506220041 55 311 4.0 13.0 0.00 0.08 0.08 35 1019.0
20260506214548 55 322 9.0 16.0 0.00 0.08 0.08 34 1019.2
20260506213036 54 287 4.0 12.0 0.00 0.08 0.08 35 1019.2
20260506210036 54 269 7.0 14.0 0.00 0.08 0.08 34 1019.1
20260506204542 54 314 8.0 15.0 0.00 0.08 0.08 34 1018.9
20260506203034 54 320 7.0 14.0 0.00 0.08 0.08 34 1019.1
20260506200032 53 265 6.0 13.0 0.00 0.08 0.08 33 1019.0
20260506194531 53 20 3.0 15.0 0.00 0.09 0.08 34 1019.1
20260506193030 52 313 5.0 16.0 0.00 0.09 0.08 36 1019.2
20260506190030 51 335 8.0 15.0 0.00 0.09 0.08 34 1019.0
20260506184528 50 271 6.0 13.0 0.00 0.09 0.08 34 1018.9
20260506183027 50 334 4.0 13.0 0.00 0.09 0.08 36 1019.0
20260506180026 49 314 7.0 10.0 0.00 0.09 0.08 39 1019.0
20260506174525 50 346 6.0 12.0 0.00 0.09 0.08 37 1018.8
20260506173025 49 12 4.0 11.0 0.00 0.09 0.08 40 1018.6
20260506170015 47 19 7.0 12.0 0.00 0.09 0.08 42 1018.2
20260506164514 47 306 7.0 10.0 0.00 0.09 0.08 45 1017.9